OK1FET-17 Weather Reports


Display with metric or nautical units.
time (UTC)temp
F
wind
direction
speed
MPH
gust
MPH
rain 1hr
in
rain 24hr
in
rain mn
in
humidity
%
barometer
mb
20260903122825 77 337 2.0 6.0 0.00 0.00 0.00 44 1024.6
20260903121817 78 354 2.0 7.0 0.00 0.00 0.00 44 1024.5
20260903120809 77 359 2.0 6.0 0.00 0.00 0.00 45 1024.5
20260903115802 75 230 3.0 6.0 0.00 0.00 0.00 46 1024.5
20260903114755 74 45 3.0 6.0 0.00 0.00 0.00 47 1024.8
20260903113748 74 234 3.0 7.0 0.00 0.00 0.00 45 1024.9
20260903112741 74 211 2.0 6.0 0.00 0.00 0.00 47 1024.8
20260903111733 75 259 3.0 7.0 0.00 0.00 0.00 47 1024.8
20260903110726 73 285 2.0 6.0 0.00 0.00 0.00 49 1025.0
20260903105719 74 315 2.0 3.0 0.00 0.00 0.00 47 1025.1
20260903104712 74 315 2.0 5.0 0.00 0.00 0.00 49 1025.4
20260903103705 75 315 2.0 4.0 0.00 0.00 0.00 51 1025.6
20260903102657 75 315 2.0 5.0 0.00 0.00 0.00 50 1025.8
20260903101650 75 315 2.0 5.0 0.00 0.00 0.00 50 1025.7
20260903100641 77 315 2.0 4.0 0.00 0.00 0.00 49 1025.7
20260903095633 79 315 2.0 4.0 0.00 0.00 0.00 47 1025.8
20260903094624 78 183 3.0 7.0 0.00 0.00 0.00 52 1025.9
20260903093615 80 225 2.0 5.0 0.00 0.00 0.00 54 1026.0
20260903092606 79 225 3.0 7.0 0.00 0.00 0.00 54 1026.1
20260903091557 77 225 3.0 6.0 0.00 0.00 0.00 56 1026.0
20260903090549 76 225 2.0 5.0 0.00 0.00 0.00 61 1026.0
20260903085541 75 225 2.0 7.0 0.00 0.00 0.00 61 1026.1
20260903084533 75 225 1.0 4.0 0.00 0.00 0.00 65 1026.1
20260903083526 73 225 2.0 5.0 0.00 0.00 0.00 67 1026.1
20260903082518 73 225 3.0 7.0 0.00 0.00 0.00 68 1026.1
20260903081510 74 212 3.0 6.0 0.00 0.00 0.00 65 1026.0
20260903080502 73 191 3.0 9.0 0.00 0.00 0.00 67 1026.0
20260903075454 74 225 2.0 6.0 0.00 0.00 0.00 62 1026.0
20260903074446 75 270 1.0 5.0 0.00 0.00 0.00 75 1026.1
20260903073438 74 315 1.0 4.0 0.00 0.00 0.00 75 1026.2
20260903072430 74 315 1.0 3.0 0.00 0.00 0.00 72 1026.2
20260903071422 73 315 1.0 2.0 0.00 0.00 0.00 80 1026.2
20260903070414 73 305 1.0 4.0 0.00 0.00 0.00 79 1026.2
20260903065406 72 180 1.0 4.0 0.00 0.00 0.00 77 1026.1
20260903064359 72 180 1.0 4.0 0.00 0.00 0.00 79 1026.1
20260903063352 71 180 1.0 3.0 0.00 0.00 0.00 82 1026.0
20260903062345 70 180 1.0 2.0 0.00 0.00 0.00 82 1026.0
20260903061339 69 180 2.0 3.0 0.00 0.00 0.00 80 1026.0
20260903060333 68 0 1.0 2.0 0.00 0.00 0.00 82 1025.9
20260903055327 67 0 0.0 2.0 0.00 0.00 0.00 81 1025.7
20260903054323 63 0 2.0 3.0 0.00 0.00 0.00 82 1025.7
20260903053318 59 0 3.0 4.0 0.00 0.00 0.00 86 1025.7
20260903052314 58 0 3.0 5.0 0.00 0.00 0.00 87 1025.8
20260903051310 58 357 4.0 5.0 0.00 0.00 0.00 89 1025.7
20260903050306 58 345 4.0 5.0 0.00 0.00 0.00 90 1025.6
20260903045306 55 319 4.0 5.0 0.00 0.00 0.00 92 1025.5
20260903044258 55 327 4.0 7.0 0.00 0.00 0.00 92 1025.5
20260903043254 55 319 4.0 6.0 0.00 0.00 0.00 92 1025.5
20260903042250 55 317 4.0 6.0 0.00 0.00 0.00 91 1025.6
20260903041246 56 319 4.0 7.0 0.00 0.00 0.00 90 1025.4
20260903040242 56 326 4.0 6.0 0.00 0.00 0.00 89 1025.4
20260903035238 56 326 4.0 6.0 0.00 0.00 0.00 89 1025.3
20260903034235 57 329 3.0 7.0 0.00 0.00 0.00 88 1025.3
20260903033231 56 318 3.0 4.0 0.00 0.00 0.00 89 1025.3
20260903032227 56 301 2.0 3.0 0.00 0.00 0.00 88 1025.3
20260903031222 57 307 2.0 3.0 0.00 0.00 0.00 88 1025.4
20260903030218 57 315 2.0 3.0 0.00 0.00 0.00 88 1025.4
20260903025214 58 326 3.0 6.0 0.00 0.00 0.00 87 1025.5
20260903024210 57 319 3.0 5.0 0.00 0.00 0.00 88 1025.4
20260903023206 57 317 3.0 5.0 0.00 0.00 0.00 88 1025.4
20260903022202 57 322 4.0 6.0 0.00 0.00 0.00 88 1025.3
20260903021158 57 321 4.0 7.0 0.00 0.00 0.00 88 1025.3
20260903020154 57 322 4.0 6.0 0.00 0.00 0.00 88 1025.3
20260903015150 58 316 4.0 5.0 0.00 0.00 0.00 88 1025.3
20260903014146 58 322 3.0 4.0 0.00 0.00 0.00 88 1025.3
20260903013142 58 315 3.0 4.0 0.00 0.00 0.00 89 1025.3
20260903012138 58 319 3.0 4.0 0.00 0.00 0.00 89 1025.3
20260903011134 58 321 4.0 5.0 0.00 0.00 0.00 90 1025.3
20260903010130 58 319 4.0 6.0 0.00 0.00 0.00 91 1025.4
20260903005126 57 324 3.0 4.0 0.00 0.00 0.00 92 1025.4
20260903004122 57 341 3.0 4.0 0.00 0.00 0.00 92 1025.4
20260903003118 57 0 3.0 4.0 0.00 0.00 0.00 93 1025.4
20260903002114 57 348 3.0 4.0 0.00 0.00 0.00 93 1025.3
20260903001110 57 333 3.0 4.0 0.00 0.00 0.00 93 1025.3
20260903000106 57 319 4.0 5.0 0.00 0.00 0.00 91 1025.3
20260902235102 57 325 4.0 6.0 0.00 0.00 0.00 90 1025.3
20260902234058 58 325 3.0 5.0 0.00 0.00 0.00 89 1025.4
20260902233054 57 321 2.0 4.0 0.00 0.00 0.00 89 1025.3
20260902232050 58 356 1.0 3.0 0.00 0.00 0.00 86 1025.3
20260902231045 59 0 1.0 2.0 0.00 0.00 0.00 87 1025.4
20260902230041 59 0 3.0 3.0 0.00 0.00 0.00 86 1025.4
20260902225037 59 344 2.0 3.0 0.00 0.00 0.00 86 1025.4
20260902224033 60 292 2.0 3.0 0.00 0.00 0.00 84 1025.5
20260902223029 61 225 2.0 3.0 0.00 0.00 0.00 83 1025.5
20260902222024 61 206 3.0 5.0 0.00 0.00 0.00 84 1025.4
20260902221020 61 223 5.0 7.0 0.00 0.00 0.00 85 1025.4
20260902220015 60 226 4.0 5.0 0.00 0.00 0.00 86 1025.5
20260902215011 60 225 4.0 6.0 0.00 0.00 0.00 87 1025.5
20260902214007 61 227 4.0 7.0 0.00 0.00 0.00 87 1025.5
20260902213003 60 227 4.0 6.0 0.00 0.00 0.00 87 1025.4
20260902211958 60 240 4.0 7.0 0.00 0.00 0.00 87 1025.4
20260902210954 60 251 4.0 6.0 0.00 0.00 0.00 86 1025.3
20260902205950 60 258 4.0 7.0 0.00 0.00 0.00 86 1025.3
20260902204945 60 270 4.0 7.0 0.00 0.00 0.00 85 1025.2
20260902203941 60 277 3.0 6.0 0.00 0.00 0.00 84 1025.1
20260902202937 61 311 3.0 4.0 0.00 0.00 0.00 82 1025.1
20260902201932 62 315 2.0 3.0 0.00 0.00 0.00 81 1025.1
20260902200928 62 315 2.0 4.0 0.00 0.00 0.00 80 1025.1
20260902195923 62 322 2.0 3.0 0.00 0.00 0.00 80 1025.0
20260902194919 62 321 2.0 3.0 0.00 0.00 0.00 80 1025.0
20260902193914 62 316 2.0 3.0 0.00 0.00 0.00 79 1025.1
20260902192910 62 0 3.0 3.0 0.00 0.00 0.00 80 1025.0
20260902191906 62 0 4.0 4.0 0.00 0.00 0.00 79 1025.0
20260902190901 62 0 3.0 4.0 0.00 0.00 0.00 79 1024.9
20260902185857 61 0 3.0 4.0 0.00 0.00 0.00 79 1024.7
20260902184853 61 0 4.0 5.0 0.00 0.00 0.00 79 1024.6
20260902183849 61 357 4.0 6.0 0.00 0.00 0.00 81 1024.7
20260902182845 61 323 3.0 6.0 0.00 0.00 0.00 80 1024.8
20260902181840 63 0 4.0 5.0 0.00 0.00 0.00 75 1024.8
20260902180836 62 0 4.0 6.0 0.00 0.00 0.00 76 1024.4
20260902175831 61 353 6.0 8.0 0.00 0.00 0.00 81 1024.3
20260902174826 62 354 6.0 8.0 0.00 0.00 0.00 83 1024.4
20260902173822 63 2 6.0 8.0 0.00 0.00 0.00 79 1024.4
20260902172817 63 359 4.0 7.0 0.00 0.00 0.00 74 1024.3
20260902171813 63 344 3.0 6.0 0.00 0.00 0.00 68 1024.6
20260902170808 64 343 4.0 8.0 0.00 0.00 0.00 67 1024.8
20260902165802 70 341 2.0 4.0 0.00 0.00 0.00 56 1024.3
20260902164757 72 0 0.0 0.0 0.00 0.00 0.00 61 1025.8